timestamp,wind_dir_avg,wind_spd_avg,wind_spd_max_dir,wind_spd_gust,battery_voltage,lat,long
2023-03-02 00:04:00+00:00,332.0,11.28,329.0,14.4,12.33,47.59359,-54.27349
2023-03-02 00:14:00+00:00,334.0,10.51,327.0,13.26,12.25,47.59359,-54.27349
2023-03-02 00:24:00+00:00,334.0,10.27,325.0,12.59,12.25,47.59359,-54.27349
2023-03-02 00:34:00+00:00,325.0,12.91,326.0,14.53,12.25,47.59359,-54.27349
2023-03-02 00:44:00+00:00,321.0,12.84,323.0,14.4,12.25,47.59359,-54.27349
2023-03-02 00:54:00+00:00,324.0,11.6,319.0,13.99,12.25,47.59359,-54.27349
2023-03-02 01:04:00+00:00,324.0,13.72,326.0,16.03,12.25,47.59359,-54.27349
2023-03-02 01:14:00+00:00,327.0,12.09,327.0,16.27,12.25,47.59359,-54.27349
2023-03-02 01:24:00+00:00,337.0,11.16,323.0,13.45,12.25,47.59359,-54.27349
2023-03-02 01:34:00+00:00,325.0,12.16,317.0,13.72,12.25,47.59359,-54.27349
2023-03-02 01:44:00+00:00,324.0,11.0,318.0,13.88,12.25,47.59359,-54.27349
2023-03-02 01:54:00+00:00,319.0,11.52,313.0,13.24,12.25,47.59359,-54.27349
2023-03-02 02:04:00+00:00,318.0,12.22,316.0,13.81,12.25,47.59359,-54.27349
2023-03-02 02:14:00+00:00,322.0,9.83,312.0,12.5,12.17,47.59359,-54.27349
2023-03-02 02:24:00+00:00,329.0,8.13,317.0,10.46,12.17,47.59359,-54.27349
2023-03-02 02:34:00+00:00,334.0,7.13,336.0,8.32,12.17,47.59359,-54.27349
2023-03-02 02:44:00+00:00,341.0,8.34,349.0,9.84,12.17,47.59359,-54.27349
2023-03-02 02:54:00+00:00,324.0,8.84,314.0,12.38,12.17,47.59359,-54.27349
2023-03-02 03:04:00+00:00,335.0,6.61,332.0,8.31,12.17,47.59359,-54.27349
2023-03-02 03:14:00+00:00,339.0,3.37,331.0,4.36,12.17,47.59359,-54.27349
2023-03-02 03:24:00+00:00,330.0,1.67,276.0,4.08,12.17,47.59359,-54.27349
2023-03-02 03:34:00+00:00,330.0,7.93,317.0,10.43,12.17,47.59359,-54.27349
2023-03-02 03:44:00+00:00,326.0,8.5,318.0,12.38,12.17,47.59359,-54.27349
2023-03-02 03:54:00+00:00,321.0,12.12,323.0,15.13,12.17,47.59359,-54.27349
2023-03-02 04:04:00+00:00,322.0,13.68,326.0,15.17,12.17,47.59359,-54.27349
2023-03-02 04:14:00+00:00,320.0,14.65,326.0,17.11,12.17,47.59359,-54.27349
2023-03-02 04:24:00+00:00,318.0,12.26,330.0,17.73,12.17,47.59359,-54.27349
2023-03-02 04:34:00+00:00,315.0,11.66,311.0,14.34,12.17,47.59359,-54.27349
2023-03-02 04:44:00+00:00,322.0,13.13,322.0,15.21,12.17,47.59359,-54.27349
2023-03-02 04:54:00+00:00,321.0,13.22,321.0,15.79,12.17,47.59359,-54.27349
2023-03-02 05:04:00+00:00,321.0,13.78,323.0,16.15,12.17,47.59359,-54.27349
2023-03-02 05:14:01+00:00,322.0,13.95,324.0,15.53,12.09,47.59359,-54.27349
2023-03-02 05:24:01+00:00,319.0,13.02,317.0,14.74,12.09,47.59359,-54.27349
2023-03-02 05:34:01+00:00,314.0,11.53,314.0,13.28,12.09,47.59359,-54.27349
2023-03-02 05:44:01+00:00,316.0,11.57,314.0,13.43,12.09,47.59359,-54.27349
2023-03-02 05:54:01+00:00,318.0,12.66,320.0,14.77,12.09,47.59359,-54.27349
2023-03-02 06:04:01+00:00,318.0,12.36,323.0,14.32,12.09,47.59359,-54.27349
2023-03-02 06:14:00+00:00,315.0,10.58,321.0,12.69,12.09,47.59359,-54.27349
2023-03-02 06:24:00+00:00,312.0,10.68,312.0,12.23,12.09,47.59359,-54.27349
2023-03-02 06:34:00+00:00,314.0,10.89,319.0,12.95,12.09,47.59359,-54.27349
2023-03-02 06:44:00+00:00,313.0,12.71,313.0,15.39,12.09,47.59359,-54.27349
2023-03-02 06:54:00+00:00,318.0,11.34,322.0,13.32,12.09,47.59359,-54.27349
2023-03-02 07:04:00+00:00,319.0,11.12,321.0,13.75,12.09,47.59359,-54.27349
2023-03-02 07:14:00+00:00,319.0,12.2,322.0,13.99,12.01,47.59359,-54.27349
2023-03-02 07:24:00+00:00,315.0,11.5,316.0,13.16,12.01,47.59359,-54.27349
2023-03-02 07:34:00+00:00,307.0,10.5,308.0,13.22,12.01,47.59359,-54.27349
2023-03-02 07:44:00+00:00,306.0,9.35,293.0,11.76,12.01,47.59359,-54.27349
2023-03-02 07:54:00+00:00,312.0,10.6,306.0,12.28,12.01,47.59359,-54.27349
2023-03-02 08:04:00+00:00,314.0,11.66,322.0,13.59,12.01,47.59359,-54.27349
2023-03-02 08:14:00+00:00,317.0,9.73,314.0,12.2,12.01,47.59359,-54.27349
2023-03-02 08:24:00+00:00,316.0,10.98,319.0,13.42,12.01,47.59359,-54.27349
2023-03-02 08:34:00+00:00,318.0,11.26,318.0,13.25,12.01,47.59359,-54.27349
2023-03-02 08:44:00+00:00,316.0,12.37,318.0,14.89,12.01,47.59359,-54.27349
2023-03-02 08:54:00+00:00,308.0,12.05,307.0,14.32,12.01,47.59359,-54.27349
2023-03-02 09:04:00+00:00,315.0,12.1,312.0,14.21,12.01,47.59359,-54.27349
2023-03-02 09:14:00+00:00,317.0,10.42,327.0,16.12,11.93,47.59359,-54.27349
2023-03-02 09:24:00+00:00,313.0,12.16,316.0,14.72,11.93,47.59359,-54.27349
2023-03-02 09:34:00+00:00,313.0,11.52,316.0,13.93,11.93,47.59359,-54.27349
2023-03-02 09:44:00+00:00,308.0,11.09,311.0,12.83,11.93,47.59359,-54.27349
2023-03-02 09:54:00+00:00,310.0,12.87,313.0,14.49,11.93,47.59359,-54.27349
2023-03-02 10:04:00+00:00,307.0,11.18,308.0,16.53,11.93,47.59359,-54.27349
2023-03-02 10:14:00+00:00,315.0,11.93,325.0,15.37,11.93,47.59359,-54.27349
2023-03-02 10:24:00+00:00,312.0,10.62,312.0,13.29,11.93,47.59359,-54.27349
2023-03-02 10:34:00+00:00,313.0,11.53,313.0,13.67,11.93,47.59359,-54.27349
2023-03-02 10:44:00+00:00,312.0,11.35,314.0,13.83,11.93,47.59359,-54.27349
2023-03-02 10:54:00+00:00,313.0,13.18,322.0,15.72,11.93,47.59359,-54.27349
2023-03-02 11:04:00+00:00,322.0,15.5,323.0,17.92,11.93,47.59359,-54.27349
2023-03-02 11:14:00+00:00,325.0,15.45,329.0,19.0,13.76,47.59359,-54.27349
2023-03-02 11:24:00+00:00,320.0,12.91,319.0,16.14,13.76,47.59359,-54.27349
2023-03-02 11:34:00+00:00,320.0,14.7,315.0,18.03,13.76,47.59359,-54.27349
2023-03-02 11:44:00+00:00,325.0,15.24,326.0,17.68,13.76,47.59359,-54.27349
2023-03-02 11:54:00+00:00,323.0,14.06,328.0,16.34,13.76,47.59359,-54.27349
2023-03-02 12:04:00+00:00,322.0,13.4,314.0,14.93,13.76,47.59359,-54.27349
2023-03-02 12:14:00+00:00,321.0,12.96,324.0,15.51,14.48,47.59359,-54.27349
2023-03-02 12:24:00+00:00,312.0,10.55,308.0,13.23,14.48,47.59359,-54.27349
2023-03-02 12:34:00+00:00,313.0,9.91,319.0,11.72,14.48,47.59359,-54.27349
2023-03-02 12:44:00+00:00,311.0,9.35,322.0,11.85,14.48,47.59359,-54.27349
2023-03-02 12:54:00+00:00,310.0,9.89,312.0,13.33,14.48,47.59359,-54.27349
2023-03-02 13:04:00+00:00,304.0,7.65,313.0,9.32,14.48,47.59359,-54.27349
2023-03-02 13:14:00+00:00,297.0,9.9,293.0,11.89,14.0,47.59359,-54.27349
2023-03-02 13:24:00+00:00,302.0,9.77,303.0,11.86,14.0,47.59359,-54.27349
2023-03-02 13:34:00+00:00,305.0,10.33,303.0,12.15,14.0,47.59359,-54.27349
2023-03-02 13:44:00+00:00,303.0,8.63,308.0,10.06,14.0,47.59359,-54.27349
2023-03-02 13:54:00+00:00,295.0,11.63,289.0,13.17,14.0,47.59359,-54.27349
2023-03-02 14:04:00+00:00,305.0,9.14,296.0,11.12,14.0,47.59359,-54.27349
2023-03-02 14:14:01+00:00,302.0,10.77,297.0,13.51,14.0,47.59359,-54.27349
2023-03-02 14:24:01+00:00,310.0,12.22,302.0,19.12,14.0,47.59359,-54.27349
2023-03-02 14:34:01+00:00,302.0,13.13,298.0,19.82,14.0,47.59359,-54.27349
2023-03-02 14:44:01+00:00,300.0,11.2,301.0,13.67,14.0,47.59359,-54.27349
2023-03-02 14:54:01+00:00,313.0,9.59,316.0,12.13,14.0,47.59359,-54.27349
2023-03-02 15:04:01+00:00,296.0,8.67,302.0,9.83,14.0,47.59359,-54.27349
2023-03-02 15:14:00+00:00,303.0,10.58,296.0,13.2,13.92,47.59359,-54.27349
2023-03-02 15:24:00+00:00,301.0,11.44,306.0,14.48,13.92,47.59359,-54.27349
2023-03-02 15:34:00+00:00,304.0,11.36,292.0,15.4,13.92,47.59359,-54.27349
2023-03-02 15:44:00+00:00,295.0,10.7,292.0,13.11,13.92,47.59359,-54.27349
2023-03-02 15:54:00+00:00,299.0,11.6,297.0,14.53,13.92,47.59359,-54.27349
2023-03-02 16:04:00+00:00,307.0,11.14,302.0,15.0,13.92,47.59359,-54.27349
2023-03-02 16:14:00+00:00,299.0,13.29,293.0,15.12,13.6,47.59359,-54.27349
2023-03-02 16:24:00+00:00,307.0,11.29,300.0,16.79,13.6,47.59359,-54.27349
2023-03-02 16:34:00+00:00,302.0,12.39,301.0,16.46,13.6,47.59359,-54.27349
2023-03-02 16:44:00+00:00,295.0,12.93,307.0,17.25,13.6,47.59359,-54.27349
2023-03-02 16:54:00+00:00,294.0,13.99,293.0,16.52,13.6,47.59359,-54.27349
2023-03-02 17:04:00+00:00,295.0,14.87,298.0,17.19,13.6,47.59359,-54.27349
2023-03-02 17:14:00+00:00,303.0,11.8,295.0,15.82,13.68,47.59359,-54.27349
2023-03-02 17:24:00+00:00,298.0,12.38,296.0,15.97,13.68,47.59359,-54.27349
2023-03-02 17:34:00+00:00,317.0,6.26,315.0,8.88,13.68,47.59359,-54.27349
2023-03-02 17:44:00+00:00,314.0,11.48,311.0,15.56,13.68,47.59359,-54.27349
2023-03-02 17:54:00+00:00,307.0,11.22,302.0,17.44,13.68,47.59359,-54.27349
2023-03-02 18:04:00+00:00,298.0,10.06,286.0,14.86,13.68,47.59359,-54.27349
2023-03-02 18:14:00+00:00,298.0,14.6,301.0,17.27,13.84,47.59359,-54.27349
2023-03-02 18:24:00+00:00,302.0,16.0,306.0,17.63,13.84,47.59359,-54.27349
2023-03-02 18:34:00+00:00,300.0,10.94,297.0,15.2,13.84,47.59359,-54.27349
2023-03-02 18:44:00+00:00,293.0,10.93,295.0,15.71,13.84,47.59359,-54.27349
2023-03-02 18:54:00+00:00,285.0,13.27,286.0,15.7,13.84,47.59359,-54.27349
2023-03-02 19:04:00+00:00,297.0,10.56,300.0,15.51,13.84,47.59359,-54.27349
2023-03-02 19:14:00+00:00,298.0,8.84,290.0,14.12,14.24,47.59359,-54.27349
2023-03-02 19:24:00+00:00,295.0,10.7,287.0,13.97,14.24,47.59359,-54.27349
2023-03-02 19:34:00+00:00,298.0,12.33,299.0,16.17,14.24,47.59359,-54.27349
2023-03-02 19:44:00+00:00,298.0,10.37,294.0,14.92,14.24,47.59359,-54.27349
2023-03-02 19:54:00+00:00,301.0,9.45,288.0,14.29,14.24,47.59359,-54.27349
2023-03-02 20:04:00+00:00,284.0,8.62,279.0,13.78,14.24,47.59359,-54.27349
2023-03-02 20:14:00+00:00,289.0,8.4,291.0,10.95,13.53,47.59359,-54.27349
2023-03-02 20:24:00+00:00,289.0,10.06,284.0,14.21,13.53,47.59359,-54.27349
2023-03-02 20:34:00+00:00,291.0,8.38,301.0,10.02,13.53,47.59359,-54.27349
2023-03-02 20:44:00+00:00,296.0,9.3,295.0,11.11,13.53,47.59359,-54.27349
2023-03-02 20:54:00+00:00,297.0,8.15,295.0,9.36,13.53,47.59359,-54.27349
2023-03-02 21:04:00+00:00,285.0,9.96,282.0,12.16,13.53,47.59359,-54.27349
2023-03-02 21:14:00+00:00,271.0,7.69,268.0,8.77,13.29,47.59359,-54.27349
2023-03-02 21:24:00+00:00,272.0,7.52,269.0,9.15,13.29,47.59359,-54.27349
2023-03-02 21:34:00+00:00,281.0,8.03,281.0,9.06,13.29,47.59359,-54.27349
2023-03-02 21:44:00+00:00,279.0,7.36,275.0,8.69,13.29,47.59359,-54.27349
2023-03-02 21:54:00+00:00,269.0,7.02,264.0,8.09,13.29,47.59359,-54.27349
2023-03-02 22:04:00+00:00,279.0,8.2,285.0,8.92,13.29,47.59359,-54.27349
2023-03-02 22:14:00+00:00,281.0,7.49,284.0,8.66,12.49,47.59359,-54.27349
2023-03-02 22:24:00+00:00,290.0,8.34,290.0,9.49,12.49,47.59359,-54.27349
2023-03-02 22:34:00+00:00,277.0,8.14,283.0,14.63,12.49,47.59359,-54.27349
2023-03-02 22:44:00+00:00,301.0,8.66,285.0,13.6,12.49,47.59359,-54.27349
2023-03-02 22:54:00+00:00,296.0,8.97,290.0,13.51,12.49,47.59359,-54.27349
2023-03-02 23:04:00+00:00,282.0,13.61,283.0,15.54,12.49,47.59359,-54.27349
2023-03-02 23:14:00+00:00,285.0,10.82,284.0,15.41,12.33,47.59359,-54.27349
2023-03-02 23:24:00+00:00,281.0,12.35,288.0,15.34,12.33,47.59359,-54.27349
2023-03-02 23:34:00+00:00,283.0,8.47,276.0,13.27,12.33,47.59359,-54.27349
2023-03-02 23:44:00+00:00,285.0,14.07,289.0,16.03,12.33,47.59359,-54.27349
2023-03-02 23:54:00+00:00,279.0,9.65,282.0,14.12,12.33,47.59359,-54.27349
